Location: Battersea Observatory
(44.4318°N, 76.3841°W)
Time: 22:41:54
(UTC-04:00)

Tiros 1 despin weight - Pass Details

Date: 25 January 2022
Orbit: 592 x 639 km, 48.2° (Epoch: 25 May)

Event Time Altitude Azimuth Distance (km) Brightness Sun altitude
Rises 19:30:37 0° 277° (W) 2,899 ? -25.8°
Reaches altitude 10° 19:32:58 10° 282° (WNW) 2,000 ? -26.3°
Enters shadow 19:36:46 47° 327° (NNW) 834 ? -26.9°
Maximum altitude 19:37:28 53° 0° (N) 782 - -27.1°
Drops below altitude 10° 19:42:03 10° 78° (ENE) 2,025 - -27.9°
Sets 19:44:26 0° 83° (E) 2,938 - -28.3°
